CAPE
683 650 403 440 602 832 812 743 521 425 503 156 19 0 0 0 0 0 0 0 0 0 0 0 0 0 0 0 1 5 6 0 0 0 0 0 0 0 0 0 3 0 0
656 645 714 673 769 990 964 740 622 533 141 23 0 3 0 0 0 0 0 0 0 0 0 0 0 0 0 0 0 5 4 0 0 0 0 0 0 0 0 0 0 0 0
699 856 879 914 957 929 775 689 482 138 4 0 0 0 0 0 0 0 0 0 0 0 0 0 0 0 0 0 0 0 3 0 0 0 0 0 0 0 0 0 0 0 0
872 1047 1035 931 857 888 679 308 50 0 0 0 0 0 0 0 0 0 0 0 0 0 0 0 0 0 0 0 0 0 1 0 0 0 0 0 0 0 0 0 0 0 0
867 993 1140 1091 820 586 271 6 0 0 0 0 0 0 0 0 0 0 0 0 0 0 0 0 0 0 0 0 1 10 11 7 9 6 0 0 0 0 0 0 0 0 3
908 810 604 499 219 21 0 0 0 0 0 0 0 0 0 0 0 0 0 0 0 0 0 0 0 0 0 0 11 17 14 12 4 0 0 2 1 2 4 7 4 6 0
256 70 45 0 0 0 0 0 0 0 0 0 0 0 0 0 0 0 0 0 0 0 0 0 0 0 0 8 4 2 7 5 5 2 1 7 10 15 13 10 8 5 0
0 0 0 0 0 0 0 0 0 0 0 0 0 0 0 0 0 0 0 0 0 0 0 0 0 1 8 6 13 27 32 14 0 9 21 20 14 17 11 12 8 4 1
0 0 0 0 0 0 0 0 0 0 0 0 0 0 0 0 0 0 0 0 0 0 0 0 1 16 20 20 21 19 27 26 27 25 18 22 17 11 5 3 5 11 1
0 0 0 0 0 0 0 0 0 0 0 0 0 0 0 0 0 0 0 0 0 0 0 0 0 12 33 35 22 28 32 11 15 13 24 34 25 24 11 8 6 9 4
0 0 0 0 0 0 0 0 0 0 0 0 0 0 0 0 0 0 0 0 0 0 0 0 0 1 13 20 28 33 37 19 32 35 24 19 22 22 16 13 13 9 8
0 0 0 0 0 0 0 0 0 0 0 0 0 0 0 0 0 0 0 0 0 0 0 0 1 8 16 11 14 27 23 30 27 32 17 16 19 17 9 14 6 6 7
0 0 0 0 0 0 0 0 0 0 0 0 0 0 0 0 0 0 0 0 0 0 0 1 9 14 19 20 28 19 30 18 31 14 13 15 16 2 3 3 1 0 0
0 0 0 0 0 0 0 0 0 0 0 0 0 0 0 0 0 0 0 0 0 0 0 4 9 9 9 7 11 12 16 23 18 7 1 1 0 0 0 0 0 0 0
0 0 0 0 0 0 0 0 0 0 0 0 0 0 0 0 0 0 0 0 0 0 1 10 17 10 16 4 0 2 10 11 6 3 1 0 0 0 0 0 0 0 0
0 0 0 0 0 0 0 0 0 0 0 0 0 0 0 0 0 0 0 0 0 0 3 13 18 30 21 0 0 0 0 0 0 1 0 0 0 0 0 0 0 0 0
0 0 0 0 0 0 0 0 0 0 0 0 0 0 0 0 0 0 0 0 0 3 7 11 11 34 25 0 0 0 0 0 0 0 0 0 0 0 0 0 0 0 0
0 0 0 0 0 0 0 0 0 0 0 0 0 0 0 0 0 0 0 0 2 7 8 9 17 21 0 0 0 0 0 0 0 0 0 0 0 0 0 0 0 0 0
0 0 0 0 0 0 0 0 0 0 0 0 0 0 0 0 0 0 0 0 2 8 11 13 5 4 0 0 0 0 0 0 0 0 0 0 0 0 0 0 0 0 0
0 0 0 0 0 0 0 0 0 0 0 0 0 0 0 0 0 0 0 0 2 7 12 7 0 0 0 0 0 0 0 0 0 0 0 0 0 0 0 0 0 0 0
0 0 0 0 0 0 0 0 0 0 0 0 0 0 0 0 0 0 0 0 0 6 12 0 0 0 0 0 0 0 0 0 0 0 0 0 0 0 0 0 0 0 0
0 0 0 0 0 0 0 0 0 0 0 0 0 0 0 0 0 0 0 0 2 10 7 0 1 3 0 0 0 0 0 0 0 0 0 0 0 0 0 0 0 0 0
0 0 0 0 0 0 0 0 0 0 0 0 0 0 0 0 0 0 0 0 6 4 6 6 1 5 14 4 0 0 0 0 0 0 0 0 0 0 0 0 0 0 1
0 0 0 0 0 0 0 0 0 0 0 0 0 0 0 0 0 0 0 1 4 8 5 5 2 10 5 8 4 0 0 0 0 1 2 0 0 0 0 1 1 1 1
0 0 0 1 0 0 0 0 0 0 0 0 0 0 0 0 0 0 0 0 1 2 9 5 9 4 0 0 0 6 7 6 1 0 0 2 7 2 3 3 3 3 1
0 0 0 0 0 0 0 0 0 0 0 0 0 0 0 0 0 0 1 1 0 0 0 0 0 0 0 0 0 0 0 0 0 0 2 4 5 6 6 4 3 3 1
CIN
-16 -47 -44 -29 -16 -17 -20 -22 -27 -32 -2 -13 -28 -0 -0 -0 -0 -0 -0 -0 -0 -0 -0 -0 -0 -0 -0 -0 -0 -1 -1 -2 -0 -0 -0 -0 -0 -0 -0 -0 -3 -0 -0
-60 -59 -54 -41 -7 -2 -2 -7 -7 -7 -13 -34 -0 -10 -0 -0 -0 -0 -0 -0 -0 -0 -0 -0 -0 -0 -0 -0 -0 -0 -2 -0 -0 -0 -0 -0 -0 -0 -0 -0 -0 -0 -0
-56 -56 -46 -19 -4 -1 -4 -3 -6 -31 -40 -0 -0 -0 -0 -0 -0 -0 -0 -0 -0 -0 -0 -0 -0 -0 -0 -0 -0 -0 -1 -0 -0 -0 -0 -0 -0 -0 -0 -0 -0 -0 -0
-40 -25 -17 -16 -11 -2 -4 -9 -47 -0 -0 -0 -0 -0 -1 -0 -0 -0 -0 -0 -0 -0 -0 -0 -0 -0 -0 -0 -0 -0 -5 -1 -0 -0 -0 -0 -0 -0 -0 -0 -0 -0 -0
-34 -16 -1 -2 -1 -4 -22 -80 -0 -0 -0 -0 -0 -0 -0 -0 -0 -0 -0 -0 -0 -0 -0 -0 -0 -0 -0 -0 -0 -1 -1 -1 -2 -4 -2 -0 -0 -0 -0 -0 -6 -0 -6
-20 -15 -23 -22 -91 -85 -0 -0 -0 -0 -0 -0 -0 -0 -0 -0 -0 -0 -0 -0 -0 -0 -0 -0 -0 -0 -0 -0 -2 -2 -1 -2 -1 -0 -1 -4 -4 -4 -3 -3 -2 -2 -1
-95 -138 -151 -0 -0 -0 -0 -0 -0 -0 -0 -0 -0 -0 -0 -0 -0 -0 -0 -0 -0 -0 -0 -0 -0 -0 -0 -1 -4 -9 -10 -6 -1 -3 -2 -3 -4 -4 -4 -5 -4 -1 -0
-0 -0 -0 -0 -0 -0 -0 -0 -0 -0 -0 -0 -0 -0 -0 -0 -0 -0 -0 -0 -0 -0 -0 -0 -0 -0 -1 -4 -0 -2 -1 -1 -0 -1 -1 -3 -2 -4 -5 -4 -3 -1 -2
-0 -0 -0 -0 -0 -0 -0 -0 -0 -0 -0 -0 -0 -0 -0 -0 -0 -0 -0 -0 -0 -0 -0 -0 -0 -1 -0 -1 -1 -2 -3 -1 -2 -2 -3 -2 -3 -4 -4 -5 -7 -4 -1
-0 -0 -0 -0 -0 -0 -0 -0 -0 -0 -0 -0 -0 -0 -0 -0 -0 -0 -0 -0 -0 -0 -0 -0 -0 -2 -1 -1 -2 -2 -2 -5 -3 -3 -2 -2 -2 -2 -2 -3 -9 -4 -1
-0 -0 -0 -0 -0 -0 -0 -0 -0 -0 -0 -0 -0 -0 -0 -0 -0 -0 -0 -0 -0 -0 -0 -0 -0 -0 -1 -3 -2 -2 -1 -5 -2 -1 -4 -4 -3 -3 -3 -3 -3 -6 -2
-0 -0 -0 -0 -0 -0 -0 -0 -0 -0 -0 -0 -0 -0 -0 -0 -0 -0 -0 -0 -0 -0 -0 -0 -1 -2 -3 -2 -2 -2 -2 -2 -6 -3 -3 -3 -3 -4 -4 -3 -5 -5 -4
-0 -0 -0 -0 -0 -0 -0 -0 -0 -0 -0 -0 -0 -0 -0 -0 -0 -0 -0 -0 -0 -0 -0 -1 -2 -1 -1 -1 -2 -2 -2 -4 -1 -2 -2 -3 -3 -4 -3 -3 -3 -0 -1
-0 -0 -0 -0 -0 -0 -0 -0 -0 -0 -0 -0 -0 -0 -0 -0 -0 -0 -0 -0 -0 -0 -0 -1 -1 -1 -2 -1 -2 -2 -2 -1 -2 -2 -1 -2 -0 -0 -0 -0 -0 -0 -0
-0 -0 -0 -0 -0 -0 -0 -0 -0 -0 -0 -0 -0 -0 -0 -0 -0 -0 -0 -0 -0 -0 -1 -1 -1 -1 -3 -2 -0 -1 -4 -2 -3 -3 -2 -0 -0 -0 -0 -0 -0 -0 -0
-0 -0 -0 -0 -0 -0 -0 -0 -0 -0 -0 -0 -0 -0 -0 -0 -0 -0 -0 -0 -0 -0 -1 -3 -1 -1 -2 -0 -0 -0 -0 -0 -2 -3 -0 -0 -0 -0 -0 -0 -1 -0 -0
-0 -0 -0 -0 -0 -0 -0 -0 -0 -0 -0 -0 -0 -0 -0 -0 -0 -0 -0 -0 -0 -1 -3 -1 -1 -2 -1 -0 -0 -0 -0 -0 -0 -0 -0 -0 -0 -0 -0 -0 -0 -0 -2
-0 -0 -0 -0 -0 -0 -0 -0 -0 -0 -0 -0 -0 -0 -0 -0 -0 -0 -0 -0 -3 -2 -2 -2 -1 -2 -0 -0 -0 -0 -0 -0 -0 -0 -0 -0 -0 -0 -0 -0 -0 -0 -0
-0 -0 -0 -0 -0 -0 -0 -0 -0 -0 -0 -0 -0 -0 -0 -0 -0 -0 -0 -0 -2 -2 -2 -2 -2 -2 -0 -0 -0 -0 -0 -0 -0 -0 -0 -0 -0 -0 -0 -0 -0 -0 -0
-0 -0 -0 -0 -0 -0 -0 -0 -0 -0 -0 -0 -0 -0 -0 -0 -0 -0 -0 -0 -1 -3 -4 -2 -0 -0 -0 -0 -0 -0 -0 -0 -0 -0 -0 -0 -0 -0 -0 -0 -0 -0 -0
-0 -0 -0 -0 -0 -0 -0 -0 -0 -0 -0 -0 -0 -0 -0 -0 -0 -0 -0 -0 -0 -2 -2 -0 -0 -0 -0 -0 -0 -0 -0 -0 -0 -0 -0 -1 -0 -0 -0 -0 -0 -0 -0
-0 -0 -0 -0 -0 -0 -0 -0 -0 -0 -0 -0 -0 -0 -0 -0 -0 -0 -0 -0 -2 -2 -1 -0 -1 -1 -0 -0 -0 -0 -0 -0 -0 -0 -0 -0 -0 -0 -0 -0 -0 -0 -0
-0 -0 -0 -0 -0 -0 -0 -0 -0 -0 -0 -0 -0 -0 -0 -0 -0 -0 -0 -0 -2 -2 -3 -3 -6 -2 -2 -2 -0 -0 -0 -0 -0 -0 -0 -0 -0 -0 -0 -0 -0 -0 -2
-0 -0 -0 -0 -0 -0 -0 -0 -0 -0 -0 -0 -0 -0 -0 -0 -0 -0 -0 -2 -1 -1 -2 -2 -2 -1 -3 -1 -1 -0 -0 -0 -0 -0 -2 -0 -0 -0 -0 -0 -4 -2 -2
-0 -0 -1 -0 -0 -0 -0 -0 -0 -0 -0 -0 -0 -0 -0 -0 -0 -0 -0 -0 -1 -1 -1 -2 -2 -3 -0 -1 -1 -0 -0 -1 -2 -0 -0 -1 -2 -1 -3 -2 -3 -2 -3
-0 -0 -0 -0 -0 -0 -0 -0 -0 -0 -0 -0 -0 -0 -0 -0 -1 -1 -1 -1 -0 -0 -0 -0 -0 -0 -0 -0 -0 -0 -0 -0 -0 -0 -1 -1 -1 -1 -2 -2 -3 -2 -4
Wind_Speed
12 10 10 8 8 7 6 6 6 8 9 12 14 15 15 17 17 19 19 21 23 23 23 24 27 29 30 32 32 33 35 36 38 37 38 39 38 35 37 36 33 36 38
8 7 5 5 4 5 5 6 7 8 10 12 14 16 15 17 17 19 20 21 22 23 24 27 29 30 32 34 34 35 36 35 36 38 39 44 42 37 38 40 41 40 37
5 4 4 4 4 4 6 7 7 8 11 12 12 14 15 15 16 19 20 24 24 26 28 30 31 33 33 35 36 35 34 36 35 34 38 46 47 48 42 42 42 42 41
2 2 2 3 5 7 7 8 9 10 10 11 14 16 18 19 20 21 24 26 27 29 31 32 32 32 32 34 34 32 31 34 36 35 35 38 43 50 56 44 41 40 40
1 3 5 7 8 6 8 9 9 10 11 12 13 15 17 17 19 23 27 29 30 32 33 33 34 34 33 32 31 30 31 32 35 37 40 41 41 41 45 52 45 41 37
2 3 5 6 4 7 7 8 8 9 11 13 14 16 18 19 22 26 29 30 30 31 32 33 34 33 31 30 29 29 30 33 36 35 36 39 41 41 41 42 41 40 36
3 6 6 6 7 6 5 6 6 8 10 12 15 17 18 22 24 28 29 31 31 32 33 34 34 33 31 29 29 30 32 32 32 33 37 35 35 34 34 35 36 37 33
7 8 8 6 4 3 3 4 4 6 9 11 14 17 20 23 25 28 30 29 31 32 34 34 33 31 29 28 26 29 30 29 29 34 32 32 31 30 30 30 33 35 34
9 10 8 5 3 2 1 1 2 5 8 11 15 19 21 23 26 27 28 30 31 32 33 33 31 29 27 27 29 29 29 29 27 29 28 29 29 30 29 29 28 31 38
6 7 7 4 2 2 1 1 2 5 8 13 16 18 22 22 24 27 29 30 30 31 32 31 30 28 26 28 29 31 31 27 26 27 27 29 29 29 30 30 30 32 35
6 6 5 4 4 3 3 3 4 6 11 14 16 19 20 21 24 27 28 29 31 31 31 30 30 29 29 28 30 30 26 25 25 24 26 28 31 31 30 31 32 33 35
6 6 5 5 6 6 6 5 6 9 12 14 17 18 18 21 25 27 28 29 30 31 30 30 29 29 30 29 28 27 24 24 24 24 27 31 32 32 32 31 33 35 36
7 7 7 8 8 8 8 8 9 11 12 15 16 17 18 22 24 26 27 29 30 30 30 29 29 30 29 27 25 24 23 23 24 25 28 30 32 34 32 32 33 35 35
9 10 10 10 10 10 10 10 10 11 12 13 16 17 20 22 23 25 27 29 29 30 29 28 29 29 27 26 25 24 24 24 24 25 30 33 32 31 33 33 32 32 34
12 13 14 13 13 12 11 11 11 12 12 14 16 18 20 21 23 25 26 27 29 29 29 28 27 25 25 25 25 25 25 24 26 27 29 31 30 28 27 28 30 31 30
15 14 15 14 13 13 11 11 12 11 12 14 17 19 20 22 24 25 26 27 28 30 29 28 28 26 24 21 23 23 24 25 26 29 30 29 26 25 28 23 24 26 27
16 15 14 13 13 12 11 12 11 10 13 15 18 20 21 24 25 25 26 27 28 29 29 29 28 25 23 19 21 22 24 25 28 28 28 27 26 27 29 30 29 28 25
16 15 14 14 13 11 10 11 10 12 14 17 19 21 25 26 25 26 27 27 26 28 28 29 27 25 21 17 20 21 23 25 26 26 25 25 26 28 30 31 29 28 26
19 17 14 12 11 10 10 10 11 13 16 21 18 23 27 28 28 28 29 28 28 29 29 29 26 23 19 17 18 21 24 25 25 24 23 24 25 27 31 29 28 27 26
19 16 13 11 11 11 9 11 12 15 18 17 22 27 29 30 30 30 29 29 27 29 29 27 23 22 18 16 17 20 24 24 23 22 23 21 23 26 26 27 26 24 26
19 15 13 13 13 11 10 13 18 18 16 20 23 27 30 31 33 34 31 31 29 29 28 25 22 18 16 15 16 19 22 22 23 23 23 23 26 26 25 24 22 23 26
20 17 17 16 14 14 15 16 17 16 24 24 26 27 29 31 33 35 34 32 29 26 24 22 20 16 15 14 15 16 17 20 20 21 23 24 26 24 23 21 21 22 20
21 18 16 17 16 16 16 17 21 22 22 25 27 28 30 32 34 34 32 30 25 25 24 20 18 16 16 14 13 13 14 15 18 19 21 22 21 20 21 20 18 19 23
21 18 17 15 17 20 19 17 19 22 25 26 27 29 31 32 34 32 29 26 26 24 21 18 15 16 18 19 13 12 12 13 15 17 20 22 16 15 15 16 20 23 25
21 20 20 19 21 21 21 21 21 22 24 27 28 29 31 32 32 30 28 26 23 20 18 15 13 16 18 19 17 12 13 14 17 20 21 20 20 21 22 23 22 23 24
21 21 21 21 20 20 21 21 22 24 26 28 28 29 32 32 30 29 27 23 19 17 16 13 14 15 15 16 16 13 12 12 15 16 18 19 20 21 21 22 23 22 22
Wind_Direction
111 102 108 101 104 92 86 71 44 33 33 29 28 30 30 28 32 25 14 6 359 358 355 349 343 340 337 334 332 330 328 327 327 325 323 323 322 323 321 323 323 318 315
116 107 95 102 97 89 73 76 33 38 35 33 24 20 31 25 21 13 10 11 5 359 353 347 341 338 334 332 330 329 326 327 328 325 324 322 321 321 323 320 317 314 314
126 104 98 94 94 88 87 71 60 50 28 31 34 28 24 21 17 13 7 1 358 352 347 342 338 335 333 331 330 329 328 327 329 329 326 321 318 318 320 318 316 313 313
97 87 86 96 92 93 82 80 69 44 35 33 22 17 10 7 8 5 359 352 349 345 343 341 338 337 335 332 331 333 332 330 328 329 328 326 322 317 315 318 318 317 314
110 106 117 110 106 81 85 78 59 41 34 27 22 15 10 9 5 359 352 349 346 344 342 341 339 336 335 333 332 332 332 331 330 328 326 325 323 322 319 315 317 317 319
122 110 109 106 77 86 81 76 62 41 31 23 17 11 7 3 357 353 349 349 347 345 344 343 341 338 336 335 336 337 334 333 330 329 329 327 325 324 324 321 320 320 321
151 139 134 125 113 99 87 74 54 37 27 18 12 8 2 357 355 352 350 347 347 346 345 344 342 341 341 341 340 339 335 332 331 331 329 329 329 328 326 324 322 321 324
153 149 146 138 123 104 92 68 54 32 19 12 6 360 354 351 350 349 348 348 347 346 344 344 344 344 346 345 343 338 337 334 332 333 331 331 331 331 329 327 325 322 322
157 158 159 157 149 125 118 75 32 15 9 1 352 348 348 348 347 349 349 348 348 346 346 345 345 348 345 345 341 338 334 333 335 334 334 334 334 332 330 328 325 323 320
173 174 176 182 208 223 261 288 337 347 349 345 344 344 344 346 348 348 348 348 347 346 346 346 346 344 342 340 338 336 336 334 335 336 336 335 334 332 329 326 324 321 319
196 191 204 239 246 250 263 278 299 324 332 337 342 341 342 343 345 347 348 347 346 346 345 346 345 344 341 338 338 337 334 334 336 335 336 335 335 331 328 326 323 320 320
215 225 245 255 252 254 264 271 298 314 324 333 334 338 341 341 342 344 346 346 345 345 346 345 345 343 342 342 342 340 341 336 336 335 335 334 333 330 329 328 325 322 322
247 252 259 260 259 262 265 279 296 309 319 326 332 333 337 338 340 342 344 344 344 345 345 345 345 345 345 343 343 341 341 340 340 338 336 335 332 329 330 329 327 325 324
268 267 268 267 267 267 270 281 295 304 312 321 327 330 333 336 338 340 341 343 344 343 344 345 347 346 347 348 345 345 342 340 336 336 334 332 332 332 332 331 330 330 329
284 277 277 274 273 271 271 282 293 301 308 318 324 328 332 335 336 338 339 341 343 343 344 345 346 347 345 349 350 345 342 342 339 337 335 334 335 336 338 337 336 335 334
295 287 282 277 274 269 269 281 293 296 307 316 322 328 331 333 334 336 337 339 341 343 344 346 346 345 345 353 352 350 347 344 341 337 336 337 340 343 339 340 341 337 336
305 294 286 279 275 271 274 284 290 299 309 315 322 327 330 331 333 334 335 336 339 342 343 344 345 347 348 354 352 350 347 344 341 340 339 341 344 345 343 342 341 339 338
313 305 296 290 281 279 278 288 292 300 310 317 323 324 328 331 331 332 333 334 336 339 341 342 344 347 353 355 350 349 347 345 344 342 344 346 346 348 347 345 344 344 344
321 314 307 298 291 284 281 288 294 307 316 321 322 326 329 330 330 331 332 333 333 336 339 339 345 346 352 354 351 350 348 346 345 346 348 349 348 348 348 350 350 349 348
326 321 315 308 300 293 282 288 298 308 312 320 324 327 327 328 329 331 333 332 332 332 334 337 344 349 352 352 350 350 348 346 348 351 351 354 352 351 352 353 354 355 351
326 326 321 314 312 308 304 309 316 318 323 333 330 328 327 327 327 328 333 332 332 333 336 340 344 348 352 351 351 350 350 350 350 351 351 352 351 353 355 356 359 359 353
326 328 326 327 330 332 326 323 325 327 316 329 331 329 328 329 328 329 331 332 334 338 341 344 345 350 350 350 352 353 353 353 353 352 352 352 351 355 358 0 4 3 7
333 334 335 335 339 339 336 328 332 331 324 327 330 330 331 330 330 331 334 337 341 340 341 344 348 352 352 352 354 357 358 356 357 356 356 356 359 2 4 7 8 12 7
337 341 341 339 336 340 338 334 331 331 328 329 332 331 330 332 333 337 340 340 341 341 344 345 348 349 353 353 356 1 2 0 0 1 360 357 5 9 9 9 9 6 2
344 344 342 340 339 340 337 337 334 331 328 329 331 332 332 333 334 340 342 342 344 348 343 343 346 348 348 352 353 355 356 359 359 356 358 3 6 6 6 4 6 8 3
345 345 344 341 339 339 337 336 332 330 329 330 332 333 332 335 338 341 342 345 341 339 340 338 341 345 348 351 352 350 350 353 357 359 358 1 4 6 7 6 6 8 9